| time (UTC) | temp F | wind direction | speed MPH | gust MPH | rain 1hr in | rain 24hr in | rain mn in | humidity % | barometer mb |
| 20260903121444 | 69 | 151 | 0.0 | 3.0 | 0.00 | 0.02 | 0.02 | 96 | 1013.2 |
| 20260903120941 | 69 | 139 | 2.0 | 4.0 | 0.00 | 0.02 | 0.02 | 96 | 1013.3 |
| 20260903120439 | 69 | 146 | 4.0 | 5.0 | 0.00 | 0.02 | 0.02 | 97 | 1013.3 |
| 20260903115938 | 69 | 148 | 3.0 | 5.0 | 0.00 | 0.02 | 0.02 | 96 | 1013.2 |
| 20260903115438 | 69 | 147 | 2.0 | 5.0 | 0.00 | 0.02 | 0.02 | 97 | 1013.2 |
| 20260903114932 | 69 | 139 | 2.0 | 4.0 | 0.00 | 0.02 | 0.02 | 97 | 1013.1 |
| 20260903114428 | 69 | 134 | 5.0 | 6.0 | 0.00 | 0.02 | 0.02 | 97 | 1013.2 |
| 20260903113924 | 69 | 139 | 5.0 | 6.0 | 0.00 | 0.02 | 0.02 | 97 | 1013.2 |
| 20260903113420 | 69 | 144 | 3.0 | 5.0 | 0.00 | 0.02 | 0.02 | 97 | 1013.1 |
| 20260903112915 | 69 | 133 | 3.0 | 6.0 | 0.00 | 0.02 | 0.02 | 97 | 1013.1 |
| 20260903112411 | 69 | 147 | 4.0 | 5.0 | 0.00 | 0.02 | 0.02 | 96 | 1013.1 |
| 20260903111909 | 69 | 144 | 3.0 | 4.0 | 0.00 | 0.02 | 0.02 | 96 | 1013.3 |
| 20260903111409 | 69 | 135 | 5.0 | 5.0 | 0.00 | 0.02 | 0.02 | 97 | 1013.1 |
| 20260903110906 | 69 | 146 | 3.0 | 5.0 | 0.00 | 0.02 | 0.02 | 97 | 1013.4 |
| 20260903110401 | 69 | 138 | 3.0 | 4.0 | 0.00 | 0.02 | 0.02 | 97 | 1013.3 |
| 20260903105855 | 69 | 133 | 3.0 | 3.0 | 0.00 | 0.02 | 0.02 | 96 | 1013.4 |
| 20260903105350 | 69 | 135 | 3.0 | 5.0 | 0.00 | 0.02 | 0.02 | 96 | 1013.3 |
| 20260903104844 | 69 | 135 | 3.0 | 4.0 | 0.00 | 0.02 | 0.02 | 96 | 1013.2 |
| 20260903104339 | 69 | 142 | 3.0 | 6.0 | 0.00 | 0.02 | 0.02 | 96 | 1013.2 |
| 20260903103836 | 69 | 145 | 4.0 | 6.0 | 0.00 | 0.02 | 0.02 | 96 | 1013.4 |
| 20260903103332 | 69 | 133 | 5.0 | 6.0 | 0.00 | 0.02 | 0.02 | 96 | 1013.0 |
| 20260903102827 | 68 | 135 | 3.0 | 6.0 | 0.00 | 0.02 | 0.02 | 96 | 1013.4 |
| 20260903102322 | 68 | 129 | 6.0 | 7.0 | 0.00 | 0.02 | 0.02 | 96 | 1013.3 |
| 20260903101821 | 68 | 161 | 4.0 | 6.0 | 0.00 | 0.02 | 0.02 | 96 | 1013.4 |
| 20260903101316 | 68 | 154 | 2.0 | 4.0 | 0.00 | 0.02 | 0.02 | 96 | 1013.3 |
| 20260903100811 | 68 | 151 | 0.0 | 2.0 | 0.00 | 0.02 | 0.02 | 96 | 1013.4 |
| 20260903100306 | 69 | 130 | 0.0 | 4.0 | 0.00 | 0.02 | 0.02 | 96 | 1013.7 |
| 20260903095803 | 69 | 159 | 5.0 | 5.0 | 0.00 | 0.02 | 0.02 | 96 | 1013.4 |
| 20260903095257 | 69 | 148 | 4.0 | 6.0 | 0.00 | 0.02 | 0.02 | 96 | 1013.2 |
| 20260903094753 | 69 | 151 | 6.0 | 8.0 | 0.00 | 0.02 | 0.02 | 96 | 1013.2 |
| 20260903094247 | 69 | 173 | 5.0 | 6.0 | 0.00 | 0.02 | 0.02 | 96 | 1013.5 |
| 20260903093743 | 69 | 160 | 6.0 | 6.0 | 0.00 | 0.02 | 0.02 | 96 | 1013.2 |
| 20260903093239 | 69 | 159 | 4.0 | 5.0 | 0.00 | 0.02 | 0.02 | 96 | 1013.4 |
| 20260903092738 | 69 | 162 | 5.0 | 6.0 | 0.00 | 0.02 | 0.02 | 96 | 1013.4 |
| 20260903092233 | 69 | 148 | 4.0 | 5.0 | 0.00 | 0.02 | 0.02 | 96 | 1013.3 |
| 20260903091732 | 69 | 145 | 1.0 | 4.0 | 0.00 | 0.02 | 0.02 | 96 | 1013.2 |
| 20260903091226 | 69 | 135 | 5.0 | 5.0 | 0.00 | 0.02 | 0.02 | 96 | 1012.9 |
| 20260903090721 | 69 | 163 | 5.0 | 5.0 | 0.00 | 0.02 | 0.02 | 96 | 1013.1 |
| 20260903090220 | 69 | 149 | 3.0 | 6.0 | 0.00 | 0.02 | 0.02 | 96 | 1013.1 |
| 20260903085714 | 68 | 154 | 4.0 | 5.0 | 0.09 | 0.02 | 0.02 | 96 | 1012.9 |
| 20260903085209 | 68 | 160 | 5.0 | 7.0 | 0.09 | 0.02 | 0.02 | 96 | 1013.1 |
| 20260903084707 | 68 | 134 | 6.0 | 8.0 | 0.00 | 0.00 | 0.00 | 96 | 1013.2 |
| 20260903084202 | 68 | 158 | 3.0 | 7.0 | 0.00 | 0.00 | 0.00 | 96 | 1013.2 |
| 20260903083657 | 68 | 135 | 6.0 | 6.0 | 0.00 | 0.00 | 0.00 | 96 | 1013.1 |
| 20260903083151 | 68 | 142 | 3.0 | 6.0 | 0.00 | 0.00 | 0.00 | 96 | 1013.3 |
| 20260903082645 | 68 | 124 | 4.0 | 5.0 | 0.00 | 0.00 | 0.00 | 96 | 1013.0 |
| 20260903082141 | 68 | 126 | 6.0 | 6.0 | 0.00 | 0.00 | 0.00 | 96 | 1013.1 |
| 20260903081636 | 68 | 141 | 5.0 | 6.0 | 0.00 | 0.00 | 0.00 | 96 | 1013.2 |
| 20260903081132 | 69 | 135 | 5.0 | 6.0 | 0.00 | 0.00 | 0.00 | 96 | 1013.0 |
| 20260903080628 | 69 | 139 | 4.0 | 6.0 | 0.00 | 0.00 | 0.00 | 96 | 1013.3 |
| 20260903080126 | 69 | 133 | 5.0 | 6.0 | 0.00 | 0.00 | 0.00 | 96 | 1013.2 |
| 20260903075624 | 69 | 126 | 4.0 | 6.0 | 0.00 | 0.00 | 0.00 | 96 | 1013.2 |
| 20260903075120 | 69 | 133 | 5.0 | 6.0 | 0.00 | 0.00 | 0.00 | 96 | 1013.3 |
| 20260903074620 | 68 | 135 | 5.0 | 6.0 | 0.00 | 0.00 | 0.00 | 96 | 1013.2 |
| 20260903074114 | 69 | 142 | 5.0 | 6.0 | 0.00 | 0.00 | 0.00 | 96 | 1013.4 |
| 20260903073610 | 69 | 135 | 5.0 | 6.0 | 0.00 | 0.00 | 0.00 | 96 | 1013.4 |
| 20260903073105 | 69 | 132 | 4.0 | 6.0 | 0.00 | 0.00 | 0.00 | 96 | 1013.3 |
| 20260903072601 | 69 | 137 | 6.0 | 6.0 | 0.00 | 0.00 | 0.00 | 96 | 1013.3 |
| 20260903072057 | 69 | 139 | 5.0 | 7.0 | 0.00 | 0.00 | 0.00 | 95 | 1013.3 |
| 20260903071553 | 69 | 139 | 5.0 | 5.0 | 0.00 | 0.00 | 0.00 | 95 | 1013.3 |
| 20260903071047 | 69 | 140 | 5.0 | 6.0 | 0.00 | 0.00 | 0.00 | 95 | 1013.2 |
| 20260903070542 | 69 | 151 | 3.0 | 6.0 | 0.00 | 0.00 | 0.00 | 95 | 1013.2 |
| 20260903070038 | 69 | 143 | 5.0 | 6.0 | 0.00 | 0.00 | 0.00 | 95 | 1013.3 |
| 20260903065537 | 70 | 157 | 4.0 | 7.0 | 0.00 | 0.00 | 0.00 | 95 | 1013.3 |
| 20260903065036 | 69 | 155 | 5.0 | 7.0 | 0.00 | 0.00 | 0.00 | 95 | 1013.3 |
| 20260903064531 | 69 | 159 | 7.0 | 8.0 | 0.00 | 0.00 | 0.00 | 95 | 1013.5 |
| 20260903064027 | 70 | 160 | 7.0 | 9.0 | 0.00 | 0.00 | 0.00 | 95 | 1013.4 |
| 20260903063522 | 69 | 180 | 6.0 | 7.0 | 0.00 | 0.00 | 0.00 | 95 | 1013.4 |
| 20260903063017 | 69 | 141 | 4.0 | 6.0 | 0.00 | 0.00 | 0.00 | 95 | 1013.6 |
| 20260903062512 | 69 | 169 | 5.0 | 5.0 | 0.00 | 0.00 | 0.00 | 95 | 1013.6 |
| 20260903062008 | 69 | 162 | 7.0 | 7.0 | 0.00 | 0.00 | 0.00 | 95 | 1013.3 |
| 20260903061503 | 69 | 158 | 5.0 | 6.0 | 0.00 | 0.00 | 0.00 | 95 | 1013.4 |
| 20260903060957 | 69 | 160 | 4.0 | 6.0 | 0.00 | 0.00 | 0.00 | 95 | 1013.8 |
| 20260903060452 | 69 | 158 | 5.0 | 5.0 | 0.00 | 0.00 | 0.00 | 95 | 1013.6 |
| 20260903055950 | 69 | 152 | 5.0 | 6.0 | 0.00 | 0.00 | 0.00 | 95 | 1013.5 |
| 20260903055449 | 69 | 178 | 3.0 | 7.0 | 0.00 | 0.00 | 0.00 | 95 | 1013.5 |
| 20260903054948 | 69 | 167 | 5.0 | 6.0 | 0.00 | 0.00 | 0.00 | 95 | 1013.5 |
| 20260903054443 | 69 | 157 | 5.0 | 6.0 | 0.00 | 0.00 | 0.00 | 95 | 1013.8 |
| 20260903053939 | 69 | 163 | 5.0 | 6.0 | 0.00 | 0.00 | 0.00 | 95 | 1013.4 |
| 20260903053439 | 69 | 159 | 4.0 | 6.0 | 0.00 | 0.00 | 0.00 | 95 | 1013.4 |
| 20260903052936 | 69 | 171 | 4.0 | 6.0 | 0.00 | 0.00 | 0.00 | 95 | 1013.6 |
| 20260903052431 | 69 | 172 | 4.0 | 6.0 | 0.00 | 0.00 | 0.00 | 95 | 1013.4 |
| 20260903051927 | 69 | 163 | 5.0 | 6.0 | 0.00 | 0.00 | 0.00 | 95 | 1013.5 |
| 20260903051422 | 69 | 197 | 4.0 | 5.0 | 0.00 | 0.00 | 0.00 | 95 | 1013.4 |
| 20260903050918 | 69 | 163 | 5.0 | 5.0 | 0.00 | 0.00 | 0.00 | 95 | 1013.4 |
| 20260903050416 | 69 | 158 | 6.0 | 7.0 | 0.00 | 0.00 | 0.00 | 95 | 1013.4 |
| 20260903045911 | 69 | 161 | 5.0 | 6.0 | 0.00 | 0.27 | 0.27 | 94 | 1013.3 |
| 20260903045406 | 70 | 158 | 5.0 | 6.0 | 0.00 | 0.27 | 0.27 | 94 | 1013.3 |
| 20260903044904 | 69 | 155 | 5.0 | 6.0 | 0.00 | 0.27 | 0.27 | 94 | 1013.4 |
| 20260903044403 | 70 | 158 | 5.0 | 5.0 | 0.00 | 0.27 | 0.27 | 94 | 1013.4 |
| 20260903043900 | 70 | 157 | 5.0 | 6.0 | 0.00 | 0.27 | 0.27 | 94 | 1013.3 |
| 20260903043355 | 70 | 152 | 5.0 | 7.0 | 0.00 | 0.27 | 0.27 | 94 | 1013.3 |
| 20260903042854 | 70 | 140 | 7.0 | 8.0 | 0.00 | 0.27 | 0.27 | 94 | 1013.4 |
| 20260903042349 | 70 | 144 | 6.0 | 7.0 | 0.00 | 0.27 | 0.27 | 94 | 1013.4 |
| 20260903041845 | 70 | 152 | 4.0 | 6.0 | 0.00 | 0.27 | 0.27 | 94 | 1013.4 |
| 20260903041341 | 70 | 146 | 6.0 | 6.0 | 0.00 | 0.27 | 0.27 | 94 | 1013.2 |
| 20260903040836 | 70 | 139 | 4.0 | 6.0 | 0.00 | 0.27 | 0.27 | 94 | 1013.4 |
| 20260903040335 | 70 | 141 | 4.0 | 6.0 | 0.00 | 0.27 | 0.27 | 94 | 1013.3 |
| 20260903035832 | 70 | 161 | 5.0 | 7.0 | 0.00 | 0.27 | 0.27 | 94 | 1013.3 |
| 20260903035326 | 70 | 155 | 6.0 | 7.0 | 0.00 | 0.27 | 0.27 | 94 | 1013.2 |
| 20260903034822 | 70 | 130 | 4.0 | 6.0 | 0.00 | 0.27 | 0.27 | 94 | 1013.0 |
| 20260903034317 | 70 | 154 | 5.0 | 6.0 | 0.00 | 0.27 | 0.27 | 94 | 1013.2 |
| 20260903033812 | 70 | 143 | 5.0 | 6.0 | 0.00 | 0.27 | 0.27 | 94 | 1013.3 |
| 20260903033307 | 70 | 123 | 3.0 | 6.0 | 0.00 | 0.27 | 0.27 | 94 | 1013.1 |
| 20260903032801 | 70 | 138 | 6.0 | 6.0 | 0.00 | 0.27 | 0.27 | 94 | 1013.4 |
| 20260903032258 | 70 | 132 | 5.0 | 7.0 | 0.00 | 0.27 | 0.27 | 94 | 1013.4 |
| 20260903031753 | 70 | 126 | 4.0 | 8.0 | 0.00 | 0.27 | 0.27 | 94 | 1013.3 |
| 20260903031252 | 71 | 127 | 4.0 | 7.0 | 0.00 | 0.27 | 0.27 | 94 | 1013.1 |
| 20260903030748 | 71 | 119 | 3.0 | 4.0 | 0.00 | 0.27 | 0.27 | 93 | 1013.6 |
| 20260903030243 | 71 | 105 | 3.0 | 6.0 | 0.00 | 0.27 | 0.27 | 93 | 1013.4 |
| 20260903025739 | 71 | 153 | 3.0 | 6.0 | 0.00 | 0.27 | 0.27 | 93 | 1013.1 |
| 20260903025234 | 71 | 139 | 5.0 | 5.0 | 0.00 | 0.27 | 0.27 | 93 | 1013.2 |
| 20260903024729 | 72 | 144 | 3.0 | 6.0 | 0.00 | 0.27 | 0.27 | 93 | 1013.3 |
| 20260903024228 | 72 | 133 | 6.0 | 7.0 | 0.00 | 0.27 | 0.27 | 93 | 1013.3 |
| 20260903023724 | 72 | 155 | 4.0 | 6.0 | 0.00 | 0.27 | 0.27 | 93 | 1013.2 |
| 20260903023219 | 72 | 129 | 6.0 | 6.0 | 0.00 | 0.27 | 0.27 | 92 | 1013.2 |
| 20260903022714 | 72 | 160 | 7.0 | 9.0 | 0.00 | 0.27 | 0.27 | 92 | 1013.2 |
| 20260903022213 | 73 | 149 | 5.0 | 7.0 | 0.00 | 0.27 | 0.27 | 92 | 1013.2 |
| 20260903021713 | 73 | 149 | 6.0 | 9.0 | 0.00 | 0.27 | 0.27 | 92 | 1013.3 |
| 20260903021208 | 73 | 159 | 5.0 | 6.0 | 0.00 | 0.27 | 0.27 | 92 | 1013.2 |
| 20260903020702 | 73 | 150 | 2.0 | 4.0 | 0.00 | 0.27 | 0.27 | 92 | 1013.1 |
| 20260903020157 | 73 | 141 | 4.0 | 4.0 | 0.00 | 0.27 | 0.27 | 93 | 1013.2 |
| 20260903015652 | 74 | 135 | 3.0 | 5.0 | 0.00 | 0.27 | 0.27 | 92 | 1013.1 |
| 20260903015148 | 74 | 134 | 5.0 | 6.0 | 0.00 | 0.27 | 0.27 | 92 | 1013.1 |
| 20260903014642 | 74 | 144 | 3.0 | 4.0 | 0.00 | 0.27 | 0.27 | 92 | 1013.0 |
| 20260903014142 | 74 | 135 | 4.0 | 5.0 | 0.00 | 0.27 | 0.27 | 91 | 1012.9 |
| 20260903013637 | 75 | 133 | 3.0 | 4.0 | 0.00 | 0.27 | 0.27 | 91 | 1012.7 |
| 20260903013136 | 75 | 143 | 3.0 | 4.0 | 0.00 | 0.27 | 0.27 | 89 | 1012.7 |
| 20260903012636 | 76 | 109 | 1.0 | 2.0 | 0.00 | 0.27 | 0.27 | 87 | 1012.6 |
| 20260903012135 | 76 | 127 | 3.0 | 3.0 | 0.00 | 0.27 | 0.27 | 86 | 1012.6 |
| 20260903011635 | 76 | 101 | 5.0 | 5.0 | 0.00 | 0.27 | 0.27 | 88 | 1012.6 |
| 20260903011129 | 76 | 90 | 3.0 | 3.0 | 0.00 | 0.27 | 0.27 | 88 | 1012.6 |
| 20260903010625 | 76 | 99 | 2.0 | 3.0 | 0.00 | 0.27 | 0.27 | 88 | 1012.7 |
| 20260903010123 | 76 | 90 | 2.0 | 3.0 | 0.00 | 0.27 | 0.27 | 88 | 1012.5 |
| 20260903005618 | 76 | 90 | 0.0 | 2.0 | 0.00 | 0.27 | 0.27 | 87 | 1012.3 |
| 20260903005114 | 76 | 90 | 0.0 | 2.0 | 0.00 | 0.27 | 0.27 | 88 | 1012.4 |
| 20260903004614 | 77 | 103 | 1.0 | 2.0 | 0.00 | 0.27 | 0.27 | 88 | 1012.3 |
| 20260903004108 | 77 | 90 | 0.0 | 2.0 | 0.00 | 0.27 | 0.27 | 87 | 1012.4 |
| 20260903003604 | 77 | 57 | 0.0 | 0.0 | 0.00 | 0.27 | 0.27 | 87 | 1012.3 |
| 20260903003059 | 77 | 75 | 1.0 | 2.0 | 0.00 | 0.27 | 0.27 | 86 | 1012.4 |
| 20260903002554 | 77 | 20 | 0.0 | 2.0 | 0.00 | 0.27 | 0.27 | 87 | 1012.4 |
| 20260903002049 | 78 | 90 | 2.0 | 2.0 | 0.00 | 0.27 | 0.27 | 86 | 1012.5 |
| 20260903001549 | 79 | 66 | 2.0 | 2.0 | 0.00 | 0.27 | 0.27 | 85 | 1012.4 |
| 20260903001043 | 79 | 60 | 2.0 | 2.0 | 0.00 | 0.27 | 0.27 | 83 | 1012.4 |
| 20260903000539 | 80 | 66 | 0.0 | 1.0 | 0.00 | 0.27 | 0.27 | 81 | 1012.3 |
| 20260903000037 | 81 | 32 | 0.0 | 0.0 | 0.00 | 0.27 | 0.27 | 80 | 1012.4 |
| 20260902235532 | 81 | 32 | 0.0 | 0.0 | 0.00 | 0.27 | 0.27 | 80 | 1012.7 |
| 20260902235027 | 81 | 90 | 0.0 | 2.0 | 0.00 | 0.27 | 0.27 | 79 | 1012.6 |
| 20260902234526 | 81 | 78 | 3.0 | 3.0 | 0.00 | 0.27 | 0.27 | 78 | 1012.5 |
| 20260902234025 | 81 | 81 | 2.0 | 3.0 | 0.00 | 0.27 | 0.27 | 77 | 1012.4 |
| 20260902233520 | 82 | 84 | 2.0 | 3.0 | 0.00 | 0.27 | 0.27 | 77 | 1012.5 |
| 20260902233014 | 82 | 72 | 2.0 | 3.0 | 0.00 | 0.27 | 0.27 | 77 | 1012.3 |
| 20260902232514 | 82 | 83 | 3.0 | 3.0 | 0.00 | 0.27 | 0.27 | 77 | 1012.3 |
| 20260902232003 | 82 | 87 | 3.0 | 4.0 | 0.00 | 0.27 | 0.27 | 75 | 1012.3 |
| 20260902231457 | 84 | 94 | 3.0 | 4.0 | 0.00 | 0.27 | 0.27 | 73 | 1012.6 |
| 20260902230952 | 85 | 166 | 0.0 | 1.0 | 0.00 | 0.27 | 0.27 | 72 | 1012.2 |
| 20260902230452 | 86 | 254 | 0.0 | 1.0 | 0.00 | 0.27 | 0.27 | 68 | 1012.2 |
| 20260902225951 | 86 | 270 | 0.0 | 2.0 | 0.00 | 0.27 | 0.27 | 67 | 1012.5 |
| 20260902225446 | 85 | 77 | 0.0 | 1.0 | 0.00 | 0.27 | 0.27 | 69 | 1012.2 |
| 20260902224945 | 84 | 102 | 0.0 | 2.0 | 0.00 | 0.27 | 0.27 | 72 | 1012.3 |
| 20260902224444 | 84 | 203 | 1.0 | 1.0 | 0.00 | 0.27 | 0.27 | 71 | 1012.3 |
| 20260902223942 | 83 | 75 | 1.0 | 2.0 | 0.00 | 0.27 | 0.27 | 74 | 1012.4 |
| 20260902223437 | 83 | 90 | 3.0 | 5.0 | 0.00 | 0.27 | 0.27 | 73 | 1012.3 |
| 20260902222936 | 83 | 94 | 2.0 | 4.0 | 0.00 | 0.27 | 0.27 | 73 | 1012.4 |
| 20260902222435 | 83 | 90 | 2.0 | 3.0 | 0.00 | 0.27 | 0.27 | 73 | 1012.3 |
| 20260902221934 | 83 | 85 | 2.0 | 3.0 | 0.00 | 0.27 | 0.27 | 73 | 1012.4 |
| 20260902221433 | 83 | 103 | 1.0 | 3.0 | 0.00 | 0.27 | 0.27 | 73 | 1012.4 |
| 20260902220929 | 83 | 117 | 2.0 | 4.0 | 0.00 | 0.27 | 0.27 | 73 | 1012.4 |
| 20260902220423 | 83 | 97 | 0.0 | 4.0 | 0.00 | 0.27 | 0.27 | 73 | 1012.7 |
| 20260902215918 | 83 | 107 | 2.0 | 5.0 | 0.00 | 0.27 | 0.27 | 74 | 1012.6 |
| 20260902215414 | 83 | 63 | 0.0 | 5.0 | 0.00 | 0.27 | 0.27 | 73 | 1012.4 |
| 20260902214910 | 82 | 87 | 3.0 | 5.0 | 0.00 | 0.27 | 0.27 | 74 | 1012.7 |
| 20260902214409 | 83 | 100 | 4.0 | 5.0 | 0.00 | 0.27 | 0.27 | 73 | 1012.7 |
| 20260902213903 | 82 | 81 | 2.0 | 4.0 | 0.00 | 0.27 | 0.27 | 73 | 1012.7 |
| 20260902213359 | 83 | 83 | 1.0 | 4.0 | 0.00 | 0.27 | 0.27 | 73 | 1012.9 |
| 20260902212858 | 84 | 14 | 4.0 | 4.0 | 0.00 | 0.27 | 0.27 | 72 | 1012.8 |
| 20260902212354 | 83 | 35 | 0.0 | 4.0 | 0.00 | 0.27 | 0.27 | 73 | 1012.9 |
| 20260902211851 | 83 | 341 | 5.0 | 5.0 | 0.00 | 0.27 | 0.27 | 74 | 1012.9 |
| 20260902211346 | 82 | 8 | 2.0 | 5.0 | 0.00 | 0.27 | 0.27 | 75 | 1012.9 |
| 20260902210841 | 82 | 6 | 6.0 | 7.0 | 0.00 | 0.27 | 0.27 | 76 | 1012.8 |
| 20260902210341 | 82 | 353 | 4.0 | 5.0 | 0.00 | 0.27 | 0.27 | 74 | 1013.0 |
| 20260902205839 | 81 | 305 | 2.0 | 5.0 | 0.00 | 0.27 | 0.27 | 75 | 1013.0 |
| 20260902205334 | 81 | 284 | 4.0 | 4.0 | 0.00 | 0.27 | 0.27 | 75 | 1012.9 |
| 20260902204830 | 81 | 301 | 2.0 | 3.0 | 0.00 | 0.27 | 0.27 | 76 | 1013.0 |
| 20260902204324 | 82 | 354 | 0.0 | 4.0 | 0.00 | 0.27 | 0.27 | 74 | 1013.2 |
| 20260902203820 | 81 | 332 | 3.0 | 6.0 | 0.00 | 0.27 | 0.27 | 75 | 1013.1 |
| 20260902203315 | 81 | 330 | 3.0 | 5.0 | 0.00 | 0.27 | 0.27 | 75 | 1013.0 |
| 20260902202814 | 81 | 321 | 3.0 | 3.0 | 0.00 | 0.27 | 0.27 | 76 | 1013.1 |
| 20260902202310 | 82 | 320 | 4.0 | 5.0 | 0.00 | 0.27 | 0.27 | 76 | 1012.9 |
| 20260902201807 | 81 | 236 | 4.0 | 5.0 | 0.00 | 0.27 | 0.27 | 74 | 1012.9 |
| 20260902201301 | 81 | 248 | 4.0 | 6.0 | 0.00 | 0.27 | 0.27 | 75 | 1013.1 |
| 20260902200756 | 81 | 246 | 8.0 | 8.0 | 0.00 | 0.27 | 0.27 | 73 | 1013.0 |
| 20260902200251 | 82 | 244 | 6.0 | 9.0 | 0.00 | 0.27 | 0.27 | 76 | 1013.1 |
| 20260902195747 | 82 | 301 | 3.0 | 8.0 | 0.00 | 0.27 | 0.27 | 75 | 1013.3 |
| 20260902195246 | 82 | 230 | 3.0 | 6.0 | 0.00 | 0.27 | 0.27 | 75 | 1013.3 |
| 20260902194740 | 82 | 277 | 4.0 | 7.0 | 0.00 | 0.27 | 0.27 | 75 | 1013.2 |
| 20260902194235 | 82 | 242 | 4.0 | 9.0 | 0.00 | 0.27 | 0.27 | 76 | 1013.4 |
| 20260902193731 | 82 | 240 | 7.0 | 7.0 | 0.00 | 0.27 | 0.27 | 74 | 1013.4 |
| 20260902193226 | 82 | 324 | 5.0 | 7.0 | 0.00 | 0.27 | 0.27 | 75 | 1013.2 |
| 20260902192724 | 81 | 250 | 7.0 | 7.0 | 0.00 | 0.27 | 0.27 | 75 | 1013.5 |
| 20260902192219 | 82 | 241 | 5.0 | 10.0 | 0.00 | 0.27 | 0.27 | 75 | 1013.2 |
| 20260902191719 | 81 | 211 | 4.0 | 10.0 | 0.00 | 0.27 | 0.27 | 76 | 1013.1 |
| 20260902191213 | 82 | 231 | 0.0 | 6.0 | 0.00 | 0.27 | 0.27 | 77 | 1013.1 |
| 20260902190709 | 82 | 239 | 0.0 | 7.0 | 0.00 | 0.27 | 0.27 | 75 | 1013.1 |
| 20260902190209 | 81 | 263 | 5.0 | 8.0 | 0.00 | 0.27 | 0.27 | 76 | 1013.1 |
| 20260902185704 | 82 | 235 | 5.0 | 6.0 | 0.00 | 0.27 | 0.27 | 76 | 1013.1 |
| 20260902185202 | 81 | 210 | 3.0 | 5.0 | 0.00 | 0.27 | 0.27 | 77 | 1013.2 |
| 20260902184655 | 80 | 294 | 0.0 | 3.0 | 0.00 | 0.27 | 0.27 | 76 | 1012.9 |
| 20260902184151 | 80 | 259 | 3.0 | 7.0 | 0.00 | 0.27 | 0.27 | 76 | 1013.4 |
| 20260902183647 | 80 | 331 | 0.0 | 5.0 | 0.00 | 0.27 | 0.27 | 75 | 1013.5 |
| 20260902183143 | 80 | 294 | 1.0 | 5.0 | 0.00 | 0.27 | 0.27 | 75 | 1013.5 |
| 20260902182639 | 80 | 220 | 3.0 | 7.0 | 0.00 | 0.27 | 0.27 | 77 | 1013.6 |
| 20260902182135 | 81 | 157 | 0.0 | 2.0 | 0.00 | 0.27 | 0.27 | 78 | 1013.7 |
| 20260902181631 | 79 | 320 | 3.0 | 6.0 | 0.00 | 0.27 | 0.27 | 81 | 1013.6 |
| 20260902181130 | 79 | 321 | 4.0 | 8.0 | 0.00 | 0.27 | 0.27 | 81 | 1013.5 |
| 20260902180630 | 79 | 312 | 4.0 | 7.0 | 0.00 | 0.27 | 0.27 | 81 | 1013.9 |
| 20260902180126 | 79 | 290 | 2.0 | 3.0 | 0.00 | 0.27 | 0.27 | 82 | 1014.1 |
| 20260902175626 | 78 | 287 | 3.0 | 6.0 | 0.00 | 0.27 | 0.27 | 81 | 1013.7 |
| 20260902175121 | 78 | 307 | 4.0 | 5.0 | 0.00 | 0.27 | 0.27 | 82 | 1013.8 |
| 20260902174618 | 78 | 334 | 2.0 | 4.0 | 0.00 | 0.27 | 0.27 | 82 | 1013.7 |
| 20260902174113 | 78 | 334 | 2.0 | 6.0 | 0.00 | 0.27 | 0.27 | 83 | 1013.8 |
| 20260902173608 | 78 | 317 | 4.0 | 4.0 | 0.00 | 0.27 | 0.27 | 82 | 1013.9 |
| 20260902173103 | 79 | 105 | 0.0 | 4.0 | 0.00 | 0.27 | 0.27 | 83 | 1013.6 |
| 20260902172556 | 77 | 286 | 2.0 | 6.0 | 0.00 | 0.27 | 0.27 | 84 | 1013.7 |
| 20260902172051 | 77 | 261 | 2.0 | 3.0 | 0.00 | 0.27 | 0.27 | 84 | 1014.0 |
| 20260902171548 | 78 | 264 | 3.0 | 8.0 | 0.00 | 0.27 | 0.27 | 83 | 1014.0 |
| 20260902171043 | 79 | 191 | 2.0 | 3.0 | 0.00 | 0.27 | 0.27 | 80 | 1014.1 |
| 20260902170538 | 79 | 254 | 0.0 | 3.0 | 0.00 | 0.27 | 0.27 | 81 | 1013.8 |
| 20260902170033 | 78 | 144 | 3.0 | 3.0 | 0.00 | 0.27 | 0.27 | 83 | 1013.9 |
| 20260902165527 | 76 | 263 | 0.0 | 3.0 | 0.00 | 0.27 | 0.27 | 83 | 1013.9 |
| 20260902165022 | 77 | 345 | 0.0 | 2.0 | 0.00 | 0.27 | 0.27 | 83 | 1014.1 |
| 20260902164517 | 76 | 165 | 1.0 | 2.0 | 0.00 | 0.27 | 0.27 | 85 | 1013.9 |
| 20260902164016 | 75 | 180 | 0.0 | 3.0 | 0.00 | 0.27 | 0.27 | 86 | 1014.0 |
| 20260902163512 | 75 | 0 | 2.0 | 5.0 | 0.00 | 0.27 | 0.27 | 87 | 1014.1 |
| 20260902163010 | 74 | 282 | 2.0 | 2.0 | 0.00 | 0.27 | 0.27 | 88 | 1014.3 |
| 20260902162510 | 73 | 210 | 3.0 | 4.0 | 0.00 | 0.27 | 0.27 | 90 | 1014.1 |
| 20260902162005 | 72 | 187 | 5.0 | 8.0 | 0.00 | 0.27 | 0.27 | 88 | 1014.1 |
| 20260902161500 | 71 | 210 | 5.0 | 6.0 | 0.00 | 0.27 | 0.27 | 89 | 1013.9 |
| 20260902160956 | 71 | 160 | 5.0 | 6.0 | 0.00 | 0.27 | 0.27 | 90 | 1014.1 |
| 20260902160451 | 71 | 169 | 0.0 | 4.0 | 0.00 | 0.27 | 0.27 | 91 | 1014.3 |
| 20260902155949 | 69 | 152 | 3.0 | 3.0 | 0.00 | 0.27 | 0.27 | 92 | 1014.4 |
| 20260902155444 | 69 | 138 | 3.0 | 4.0 | 0.00 | 0.27 | 0.27 | 92 | 1014.1 |
| 20260902154938 | 68 | 106 | 2.0 | 4.0 | 0.00 | 0.27 | 0.27 | 92 | 1013.9 |
| 20260902154434 | 68 | 166 | 3.0 | 6.0 | 0.00 | 0.27 | 0.27 | 93 | 1014.1 |
| 20260902153933 | 68 | 181 | 5.0 | 7.0 | 0.00 | 0.27 | 0.27 | 93 | 1014.1 |
| 20260902153432 | 68 | 152 | 4.0 | 5.0 | 0.00 | 0.27 | 0.27 | 93 | 1013.7 |
| 20260902152928 | 68 | 146 | 5.0 | 8.0 | 0.00 | 0.27 | 0.27 | 93 | 1013.9 |
| 20260902152424 | 68 | 160 | 8.0 | 9.0 | 0.00 | 0.27 | 0.27 | 93 | 1014.1 |
| 20260902151919 | 68 | 174 | 5.0 | 7.0 | 0.00 | 0.27 | 0.27 | 92 | 1014.5 |
| 20260902151414 | 68 | 200 | 5.0 | 6.0 | 0.00 | 0.27 | 0.27 | 92 | 1014.3 |
| 20260902150909 | 68 | 191 | 6.0 | 7.0 | 0.00 | 0.27 | 0.27 | 91 | 1014.3 |
| 20260902150405 | 68 | 171 | 4.0 | 5.0 | 0.00 | 0.27 | 0.27 | 91 | 1014.1 |
| 20260902145904 | 68 | 171 | 4.0 | 4.0 | 0.00 | 0.27 | 0.27 | 91 | 1013.8 |
| 20260902145400 | 68 | 127 | 0.0 | 3.0 | 0.00 | 0.27 | 0.27 | 92 | 1013.8 |
| 20260902144854 | 68 | 161 | 2.0 | 4.0 | 0.00 | 0.27 | 0.27 | 92 | 1014.0 |
| 20260902144351 | 68 | 141 | 4.0 | 7.0 | 0.00 | 0.27 | 0.27 | 93 | 1013.7 |
| 20260902143845 | 68 | 163 | 3.0 | 6.0 | 0.00 | 0.27 | 0.27 | 93 | 1013.8 |
| 20260902143340 | 67 | 155 | 3.0 | 7.0 | 0.00 | 0.27 | 0.27 | 93 | 1014.1 |
| 20260902142836 | 67 | 173 | 5.0 | 6.0 | 0.00 | 0.27 | 0.27 | 92 | 1014.3 |
| 20260902142332 | 67 | 162 | 2.0 | 2.0 | 0.00 | 0.27 | 0.27 | 92 | 1014.3 |
| 20260902141826 | 67 | 154 | 1.0 | 4.0 | 0.00 | 0.27 | 0.27 | 92 | 1013.9 |
| 20260902141322 | 67 | 135 | 3.0 | 5.0 | 0.00 | 0.27 | 0.27 | 92 | 1014.0 |
| 20260902140821 | 67 | 148 | 2.0 | 2.0 | 0.00 | 0.27 | 0.27 | 92 | 1014.1 |
| 20260902140317 | 67 | 164 | 0.0 | 2.0 | 0.00 | 0.27 | 0.27 | 93 | 1014.5 |
| 20260902135816 | 67 | 151 | 0.0 | 2.0 | 0.00 | 0.27 | 0.27 | 93 | 1014.6 |
| 20260902135312 | 67 | 196 | 2.0 | 3.0 | 0.00 | 0.27 | 0.27 | 93 | 1015.2 |
| 20260902134811 | 67 | 275 | 2.0 | 2.0 | 0.00 | 0.27 | 0.27 | 93 | 1015.4 |
| 20260902134307 | 66 | 350 | 3.0 | 3.0 | 0.00 | 0.27 | 0.27 | 93 | 1015.3 |
| 20260902133802 | 66 | 285 | 2.0 | 3.0 | 0.00 | 0.27 | 0.27 | 94 | 1015.3 |
| 20260902133302 | 66 | 229 | 2.0 | 2.0 | 0.00 | 0.27 | 0.27 | 94 | 1015.3 |
| 20260902132757 | 66 | 345 | 1.0 | 3.0 | 0.00 | 0.27 | 0.27 | 94 | 1015.2 |
| 20260902132252 | 66 | 240 | 1.0 | 1.0 | 0.00 | 0.27 | 0.27 | 94 | 1015.0 |
| 20260902131748 | 66 | 281 | 2.0 | 3.0 | 0.00 | 0.27 | 0.27 | 94 | 1014.9 |
| 20260902131244 | 66 | 173 | 5.0 | 7.0 | 0.00 | 0.27 | 0.27 | 94 | 1014.7 |
| 20260902130743 | 65 | 160 | 5.0 | 5.0 | 0.00 | 0.27 | 0.27 | 94 | 1014.6 |
| 20260902130239 | 65 | 263 | 0.0 | 3.0 | 0.00 | 0.27 | 0.27 | 94 | 1014.8 |
| 20260902125734 | 65 | 24 | 2.0 | 2.0 | 0.00 | 0.27 | 0.27 | 94 | 1015.0 |
| 20260902125231 | 65 | 160 | 5.0 | 8.0 | 0.12 | 0.27 | 0.27 | 94 | 1014.4 |
| 20260902124726 | 65 | 140 | 7.0 | 8.0 | 0.12 | 0.27 | 0.27 | 94 | 1014.5 |
| 20260902124222 | 65 | 199 | 3.0 | 6.0 | 0.00 | 0.25 | 0.25 | 94 | 1014.8 |
| 20260902123716 | 65 | 143 | 5.0 | 7.0 | 0.00 | 0.25 | 0.25 | 95 | 1014.5 |
| 20260902123213 | 65 | 148 | 5.0 | 9.0 | 0.00 | 0.25 | 0.25 | 95 | 1014.0 |
| 20260902122711 | 65 | 146 | 4.0 | 6.0 | 0.00 | 0.25 | 0.25 | 96 | 1014.5 |
| 20260902122207 | 65 | 139 | 6.0 | 7.0 | 0.00 | 0.25 | 0.25 | 96 | 1014.3 |